RH
41 38 38 40 41 44 44 38 37 40 37 34 37 36 31 33 32 27 27 26 24 23 22 21 20 19 19 18 18 16 13 14 12 11 16 19 17 17 18 19 21 21 22 23 23 24 24 23 22 21 20 18 16 15 13 13 13 15 17 21 26 32 38 42 45 46 46 45 44 43 42 41 41 42 42 41 40 39 39 38 38 39 40 40 40 40 39 37 35 39 43 51 58 62 66 69 61
40 37 37 40 43 44 45 41 40 45 40 35 35 36 34 33 31 28 29 28 25 22 21 21 20 20 20 19 18 16 14 12 11 11 14 17 17 17 18 19 21 21 21 22 22 22 22 22 21 20 19 18 17 15 14 12 12 13 16 19 22 26 31 37 40 42 43 43 44 44 43 42 42 42 42 40 39 38 37 36 37 38 39 39 39 38 37 36 37 40 40 47 59 66 67 69 67
36 36 36 39 44 43 46 43 41 44 38 35 35 37 35 30 30 31 30 28 24 21 21 21 21 21 20 21 19 17 15 12 12 12 14 16 18 17 18 20 21 22 21 21 21 20 21 21 20 19 18 18 17 17 16 15 14 13 15 18 21 23 26 32 36 38 39 40 40 40 40 41 41 41 41 40 39 39 37 37 38 40 41 41 41 41 43 40 42 49 45 47 57 64 64 67 70
35 34 35 39 42 42 50 49 47 44 37 39 36 35 37 32 31 32 29 25 24 23 22 22 22 22 21 21 19 17 15 13 13 14 16 16 17 18 18 20 21 21 21 20 20 20 19 19 18 18 18 18 17 17 17 16 16 15 16 18 21 23 25 29 31 33 35 36 38 37 36 36 37 38 39 40 40 40 38 38 40 42 43 45 46 46 51 47 48 60 55 51 57 61 63 66 70
37 36 36 38 40 41 49 49 49 43 37 41 35 34 38 36 34 32 29 25 26 24 22 23 22 22 21 21 19 17 14 13 14 14 16 18 18 19 20 20 21 21 21 21 20 19 19 18 17 17 17 17 17 17 17 16 17 17 17 18 21 23 25 28 30 30 31 32 34 34 34 34 35 36 37 39 41 43 42 42 43 45 46 48 48 45 48 45 45 57 55 51 56 62 63 63 68
40 38 37 37 38 40 44 45 46 43 40 40 34 35 37 37 35 32 30 26 27 26 24 23 22 23 22 22 20 17 15 14 14 15 16 18 19 19 19 20 20 20 21 20 19 19 19 18 18 17 17 17 17 16 17 16 16 18 18 19 21 23 25 27 28 29 29 30 31 32 32 33 35 36 37 38 41 43 46 47 47 48 49 49 48 45 44 41 41 48 48 47 53 59 60 58 60
39 39 39 37 37 39 44 45 46 46 43 38 34 35 35 35 34 32 32 28 28 27 26 25 23 24 23 22 20 18 15 14 14 15 16 17 18 18 18 20 20 20 19 19 19 19 19 19 18 18 17 16 17 16 17 17 17 17 18 19 20 23 26 28 28 28 29 29 30 31 31 32 33 34 36 37 38 41 45 48 50 50 50 49 48 46 41 37 38 42 42 43 48 52 53 51 49
36 38 40 39 40 42 45 47 47 47 44 41 36 34 33 34 33 33 34 31 29 28 28 27 25 25 25 23 21 18 14 14 14 15 16 17 17 17 18 20 21 20 19 19 18 19 19 19 19 18 17 17 17 17 18 18 17 17 18 19 19 21 25 27 29 29 30 30 31 31 32 32 32 33 34 35 37 39 43 47 50 50 50 49 46 42 37 35 35 37 38 40 44 46 47 46 44
32 36 40 41 42 41 43 44 44 45 45 45 39 34 32 32 32 33 34 33 30 28 28 27 26 25 26 25 23 19 15 15 15 15 16 16 17 17 18 19 20 21 21 19 18 18 17 17 17 16 16 17 18 18 19 19 19 18 18 20 19 20 21 24 27 29 29 30 32 33 33 33 33 33 34 35 36 37 41 45 47 48 47 46 42 37 35 35 34 35 38 40 41 43 45 44 44
33 36 40 44 44 42 42 40 40 42 44 45 43 38 33 31 32 33 34 32 30 29 29 28 28 26 26 26 24 20 16 15 15 15 14 15 17 18 18 19 19 21 20 19 17 15 14 14 15 15 16 17 18 19 20 20 20 19 19 20 20 20 20 23 26 29 30 31 33 34 34 35 34 34 34 34 35 35 38 41 42 42 41 39 37 36 37 37 37 38 39 40 40 42 45 45 45
35 39 39 44 46 41 40 39 38 39 42 44 44 40 33 30 31 32 32 31 29 30 29 30 31 29 28 28 25 21 17 16 15 14 14 15 17 18 19 19 19 19 19 17 14 12 13 13 14 15 15 16 18 18 20 20 21 20 19 19 20 20 20 21 23 28 31 31 32 33 33 34 34 34 34 34 33 34 34 36 37 37 36 35 34 36 36 38 40 39 38 41 41 41 45 44 45
34 42 45 46 47 42 40 41 37 38 43 43 43 40 34 31 30 30 31 31 30 30 30 30 31 31 32 32 26 22 19 17 16 16 15 15 17 19 19 17 17 18 17 15 13 12 12 13 14 14 14 15 16 17 18 19 20 20 20 19 19 20 20 19 19 22 24 24 26 28 30 30 32 32 33 33 32 32 32 33 34 34 33 33 34 34 35 36 38 37 37 39 41 41 43 42 43
33 43 48 46 49 47 43 41 39 39 39 40 40 37 36 33 31 29 29 31 31 31 30 29 31 32 34 33 27 23 22 19 17 16 15 15 17 18 18 17 16 16 15 13 13 12 13 13 13 13 14 14 14 16 16 17 18 18 19 18 18 19 19 19 18 17 17 18 21 23 25 26 28 30 31 32 32 31 31 32 32 32 32 32 32 32 33 35 35 34 34 36 37 39 40 40 41
32 39 43 44 49 49 43 39 37 36 32 33 34 32 36 36 32 30 28 31 32 32 31 31 33 35 35 33 28 25 23 22 19 16 14 15 17 18 18 17 15 15 15 14 13 12 13 13 13 13 13 14 14 15 16 16 17 17 18 17 17 18 19 19 19 18 18 17 19 21 23 24 25 27 29 31 31 31 31 31 31 31 31 31 31 31 32 32 33 32 32 32 32 34 35 38 39
30 37 43 47 49 45 39 34 30 31 28 28 30 28 33 35 33 32 30 31 33 31 32 33 35 36 37 35 30 26 24 24 22 18 15 14 16 18 19 18 16 15 15 14 13 12 13 13 13 13 13 13 14 14 15 16 17 17 18 18 18 17 18 19 20 20 19 19 18 19 20 21 22 25 28 29 30 30 29 29 29 29 28 29 28 28 28 28 28 28 28 29 30 30 32 34 36
29 36 45 47 47 42 33 30 29 29 28 27 27 25 29 32 32 33 33 32 32 32 33 34 35 36 36 34 29 25 26 27 24 21 17 14 15 16 18 18 17 16 15 15 13 12 13 14 13 13 13 13 13 14 14 16 16 17 18 18 18 18 18 18 19 20 19 19 19 19 19 19 20 22 24 24 24 24 24 23 22 22 22 22 21 21 21 21 21 22 23 25 27 29 30 30 32
30 34 43 44 43 39 29 28 29 29 30 27 23 23 26 29 29 30 33 33 34 34 33 33 33 34 35 34 30 26 28 28 25 23 19 17 15 15 16 18 18 17 16 16 14 13 12 13 14 14 14 13 14 14 14 15 15 16 17 18 18 18 18 18 18 18 17 17 17 17 18 19 19 20 20 20 20 20 20 20 19 18 18 17 17 16 16 15 15 16 17 18 21 24 27 29 29
30 36 42 38 36 33 25 26 27 28 27 23 21 21 24 26 26 27 29 31 33 34 33 32 32 33 35 35 32 28 29 28 25 22 20 19 17 15 15 17 19 18 18 17 14 13 13 13 13 13 13 13 13 14 15 15 15 16 17 18 18 18 18 19 18 17 16 16 15 15 15 16 18 19 19 19 19 19 19 19 18 18 17 17 16 16 15 15 15 15 14 14 15 17 19 23 25
28 37 38 32 31 28 23 25 25 23 21 21 19 19 22 23 24 26 27 29 31 33 34 34 32 32 34 34 34 31 29 29 25 22 20 19 18 17 14 16 18 18 18 16 14 13 13 13 12 12 12 13 13 14 15 15 15 15 16 17 18 18 18 18 18 17 16 15 15 14 14 15 16 17 18 19 19 19 19 19 19 18 17 17 17 16 14 14 16 16 15 14 13 13 14 15 18
26 31 29 26 29 27 24 24 22 21 20 21 18 17 21 21 22 26 28 29 29 31 35 36 34 33 33 34 34 33 31 30 28 25 22 20 19 17 15 15 17 18 19 16 14 13 13 13 12 12 12 13 13 14 14 15 16 16 16 17 17 17 17 16 16 15 15 14 14 14 14 14 15 16 17 18 19 19 19 19 19 18 18 17 18 17 14 15 19 20 19 16 14 13 13 13 14
28 27 25 26 29 27 23 22 20 20 20 21 21 22 22 18 20 23 25 28 28 27 29 35 37 34 33 34 34 33 33 31 30 28 25 22 20 18 17 15 15 17 19 17 14 13 14 13 12 12 12 12 14 14 15 16 17 17 17 17 17 17 16 15 15 15 15 14 14 14 14 14 14 14 15 16 17 18 19 19 19 18 18 17 17 17 16 18 23 23 19 17 16 15 16 15 15
27 24 24 27 29 26 21 20 19 18 20 24 28 28 25 21 21 19 22 25 25 23 23 28 35 36 33 33 34 33 32 31 30 29 27 23 21 19 18 17 16 15 18 18 14 14 14 13 13 12 12 12 14 15 16 17 18 19 19 18 18 17 16 16 15 14 14 13 13 14 14 14 14 13 13 14 15 16 17 18 18 18 19 18 17 17 17 19 22 20 18 17 17 17 19 19 19
27 23 23 25 26 25 22 20 19 20 24 27 28 27 24 25 23 19 19 20 21 22 21 22 27 34 35 33 32 32 32 31 29 29 27 25 23 21 20 19 18 16 17 18 15 14 14 14 13 12 12 12 14 15 16 17 19 20 20 19 18 17 16 15 14 13 13 12 12 12 13 14 13 13 13 13 13 14 15 16 17 17 18 19 18 17 17 17 17 18 18 18 18 18 19 19 19
30 26 24 23 23 23 22 22 22 24 26 24 23 23 23 24 22 19 17 16 19 21 20 20 21 27 33 33 31 31 31 30 29 28 27 25 24 23 22 21 20 18 17 17 16 15 15 14 14 13 12 12 13 14 15 17 19 21 21 20 19 18 17 16 15 14 13 13 12 12 13 13 13 14 14 15 14 14 13 14 16 18 18 19 21 19 17 16 16 17 18 17 18 19 19 19 18
32 31 28 25 24 23 24 25 26 26 24 21 22 23 22 22 22 19 16 15 19 20 20 21 20 21 28 31 31 31 31 29 27 27 26 25 25 24 24 23 22 20 19 18 16 15 15 15 14 13 12 12 12 13 14 16 19 21 21 20 20 19 17 17 16 15 15 14 13 12 12 13 14 15 16 17 16 15 14 14 15 18 18 19 21 21 20 19 18 19 18 17 19 19 20 20 19
32 32 32 30 29 28 28 28 27 25 22 21 22 23 22 21 23 20 15 16 17 17 18 21 23 22 26 29 28 28 29 29 28 27 25 25 25 25 25 25 23 21 21 19 18 16 15 15 14 13 12 12 12 13 14 15 18 20 21 20 20 19 17 16 16 15 15 15 14 13 12 13 13 14 16 16 16 16 15 13 14 17 19 19 19 20 21 22 22 23 21 20 22 23 23 23 22
32 32 31 33 35 33 32 30 28 27 23 22 24 24 21 21 23 19 14 16 16 14 15 19 23 25 28 31 28 25 26 27 28 27 26 26 26 25 24 25 24 23 22 21 21 19 17 16 15 13 13 13 13 13 13 14 16 18 19 19 19 19 17 16 16 16 15 15 14 13 13 13 13 14 15 15 16 15 14 13 14 16 18 19 20 19 21 24 24 25 25 25 26 27 27 26 24
34 34 31 31 34 33 32 31 29 28 24 23 26 24 20 20 22 18 15 16 15 14 13 15 21 26 30 33 31 27 24 25 27 27 28 29 27 26 25 25 25 24 23 22 22 21 20 18 15 13 14 14 14 13 13 13 14 15 17 18 18 18 18 17 16 16 16 15 15 14 14 13 14 15 15 15 15 15 15 14 14 16 18 21 21 18 20 24 25 26 28 28 29 29 29 29 28
36 37 35 30 30 29 28 29 30 30 29 27 29 27 19 17 19 16 15 15 15 15 14 15 20 25 29 32 32 27 23 22 23 25 28 30 29 27 27 26 26 25 25 24 23 22 22 20 17 14 14 14 15 14 13 13 14 15 15 15 16 16 16 16 16 16 16 15 15 15 15 15 15 15 15 15 15 16 16 15 17 18 19 21 21 18 20 24 25 27 28 28 28 29 30 30 30
38 39 38 34 31 28 24 26 30 32 34 32 34 33 19 14 17 15 14 15 15 16 15 15 17 21 27 33 34 28 25 23 21 23 25 28 29 28 28 27 27 27 26 25 24 24 23 22 19 17 15 14 15 15 15 14 14 14 15 14 15 15 16 15 15 15 15 15 15 14 14 15 14 14 14 14 15 15 15 16 20 22 20 20 20 19 20 21 23 24 26 26 26 27 29 30 30
39 40 38 37 36 29 23 25 27 27 30 30 36 38 22 14 18 15 14 16 16 16 16 16 16 17 23 33 36 32 28 27 24 23 23 26 28 29 29 29 28 28 27 27 26 26 25 23 21 19 18 17 16 17 16 15 15 15 15 15 14 15 14 14 14 14 14 14 13 14 14 14 14 14 14 14 14 14 15 16 20 22 21 21 22 21 21 20 20 20 21 22 24 25 26 27 28
42 44 40 40 38 28 24 27 26 27 27 26 34 37 23 17 20 17 17 19 18 17 16 16 16 16 18 26 33 32 29 28 27 27 26 26 27 29 31 32 31 29 29 29 28 27 26 24 23 21 20 19 19 19 18 17 16 16 16 16 15 15 14 14 14 14 13 14 14 14 14 14 14 14 14 14 13 14 15 16 18 21 21 23 24 24 24 23 19 17 18 18 20 21 23 24 25
45 48 44 40 38 32 30 30 29 30 30 28 32 34 22 19 22 20 19 20 19 18 17 17 17 16 16 18 24 28 28 28 29 31 32 29 29 31 33 34 33 33 32 31 30 28 27 26 25 24 23 22 22 22 20 18 17 17 17 17 17 16 15 14 14 14 14 14 14 14 14 14 14 14 14 14 14 14 14 15 16 18 20 21 23 24 25 24 21 20 20 19 19 19 19 19 20
48 51 48 41 41 40 36 35 35 35 36 34 35 34 24 17 21 20 19 20 19 18 18 17 17 16 15 16 20 23 23 25 27 31 36 35 33 33 34 35 35 35 35 33 32 31 29 27 26 27 27 25 24 24 23 20 18 17 17 17 17 17 17 16 16 15 15 15 15 15 15 15 15 14 14 14 14 14 15 15 16 16 18 19 20 21 22 22 22 22 23 22 22 20 18 17 16
49 55 54 49 47 46 42 42 43 42 43 41 40 38 26 18 19 19 19 19 19 17 17 17 17 16 16 16 19 21 20 19 20 24 32 35 35 36 37 37 37 37 37 36 35 34 31 28 27 28 30 30 29 28 26 23 19 18 17 17 18 18 18 17 17 17 17 17 17 17 16 16 16 16 15 15 15 15 15 15 16 16 17 18 19 20 21 22 22 23 23 22 21 20 18 17 16
53 56 56 55 53 50 43 44 46 46 49 45 42 40 30 22 19 19 20 19 18 16 16 16 16 17 17 16 18 21 21 18 16 19 27 32 35 39 40 39 40 40 40 39 38 37 33 31 29 29 31 34 34 32 28 24 20 19 18 18 18 19 19 19 18 18 18 19 19 19 19 18 18 18 18 17 17 16 16 16 16 16 16 17 18 19 20 20 20 20 19 19 19 18 18 17 17
61 62 60 57 56 51 44 48 48 49 54 46 40 43 35 25 20 20 22 21 19 18 16 16 16 17 18 17 17 20 22 20 17 17 21 26 31 39 44 44 44 43 43 42 41 39 38 36 33 30 32 36 37 35 31 27 23 21 21 20 20 20 20 20 20 20 20 20 20 21 21 21 21 21 20 19 18 17 16 16 16 16 17 17 17 18 18 18 18 18 18 19 19 19 19 18 18
65 67 66 60 57 53 48 52 50 48 55 46 39 47 40 27 22 21 23 24 21 19 17 17 15 16 18 18 17 19 22 21 19 19 19 20 24 31 40 44 45 45 45 45 43 42 41 42 39 35 34 36 38 37 35 31 27 24 24 23 23 23 22 22 22 22 22 22 22 23 23 23 22 22 21 20 19 18 18 18 17 17 17 17 18 18 18 19 19 19 20 20 20 20 20 20 19
66 67 69 63 56 56 50 45 46 51 58 50 43 51 44 29 24 23 24 25 22 21 20 18 17 17 18 19 18 18 21 22 20 20 19 20 20 23 31 37 40 41 43 44 44 44 44 44 44 42 38 36 38 40 38 35 31 28 27 26 26 25 24 25 25 25 25 25 25 25 24 22 22 21 21 20 20 19 19 19 19 19 19 19 20 20 20 20 21 21 21 21 21 21 22 21 21
66 67 70 63 53 62 57 42 46 57 62 55 49 54 47 31 26 24 25 24 22 23 22 19 19 19 19 21 21 19 20 23 23 22 20 20 21 22 26 32 36 37 37 38 39 41 43 44 43 44 43 40 40 41 41 39 35 31 30 29 28 27 27 27 27 27 27 28 28 27 24 22 21 21 21 21 21 21 21 21 21 21 21 22 22 22 22 22 22 22 22 22 22 22 22 22 22
63 62 65 62 55 62 60 49 54 60 61 57 58 66 51 32 30 26 23 24 23 23 22 21 20 18 20 22 23 21 19 20 22 23 23 22 22 22 24 28 34 36 36 34 34 36 40 42 41 42 45 45 44 43 42 41 38 35 34 33 32 30 30 29 29 30 30 31 31 29 26 22 21 22 22 23 23 23 23 23 23 23 23 23 24 24 24 24 23 23 23 23 23 23 23 23 24
63 57 59 64 61 61 61 60 67 71 65 57 66 78 56 31 31 28 22 24 25 23 22 23 21 18 20 23 23 23 21 19 20 22 24 25 25 27 26 27 31 36 37 35 35 36 38 41 42 42 46 48 48 45 44 43 40 39 39 39 37 35 33 32 32 33 33 33 33 32 29 24 22 23 24 24 24 24 24 25 25 25 25 25 25 25 25 25 25 24 24 24 24 24 24 24 24
69 60 61 67 66 65 67 68 76 80 71 62 70 80 66 41 30 27 26 27 24 23 24 24 23 21 22 24 24 23 22 22 22 23 25 27 29 31 32 32 35 38 39 37 37 37 39 41 44 45 48 49 48 46 45 45 43 42 43 43 42 40 37 36 36 35 35 35 34 34 33 29 25 24 24 24 24 25 25 26 26 26 26 26 26 26 26 26 26 25 25 25 24 24 24 24 24
73 66 68 71 70 72 72 73 79 77 72 72 70 76 81 63 36 26 31 30 24 24 27 27 27 25 24 24 24 24 23 22 24 26 27 28 29 30 32 36 40 42 40 39 38 38 39 42 44 47 50 49 46 45 46 45 44 45 46 45 44 43 42 41 40 39 37 36 37 37 37 35 31 26 25 25 25 26 26 27 28 28 28 28 28 28 28 27 27 27 26 26 25 25 25 24 24
76 73 76 76 77 79 77 80 82 77 82 81 63 67 88 77 42 29 35 34 26 23 27 30 29 28 27 25 24 25 25 24 24 25 27 28 30 31 32 34 37 39 39 38 39 39 40 41 43 47 49 47 45 45 46 45 46 47 47 46 46 45 45 45 44 43 41 39 40 40 40 41 38 31 26 26 25 26 27 28 29 29 29 30 29 29 29 28 28 28 27 27 27 26 26 25 25
79 80 83 82 86 88 87 90 87 86 92 80 57 64 88 82 50 34 35 33 27 24 25 30 29 29 29 27 26 26 26 26 26 27 29 31 32 35 35 35 35 37 38 39 39 40 41 40 42 45 48 49 47 45 45 46 47 48 48 49 48 46 46 46 47 47 45 43 44 45 44 45 44 38 30 27 27 26 28 29 29 30 30 30 30 30 30 30 29 29 28 28 27 27 27 26 26
80 86 90 88 88 89 90 92 91 95 92 71 56 63 85 89 59 34 31 29 27 28 28 30 31 31 31 30 29 29 27 26 26 28 31 33 35 37 40 40 40 40 41 42 41 40 40 40 43 47 48 49 50 48 46 48 49 49 51 51 49 48 46 46 47 48 48 48 49 50 49 49 50 45 37 31 30 29 29 30 31 31 31 31 32 31 31 30 30 29 29 28 28 27 27 27 26
83 89 91 89 85 84 88 89 91 97 85 66 62 67 82 87 56 27 26 30 32 33 33 34 35 34 35 34 33 33 31 29 28 30 32 34 37 39 43 45 44 44 43 43 43 41 40 41 44 48 47 48 52 50 46 48 50 50 52 52 51 49 48 47 47 50 51 53 54 55 54 54 54 52 44 37 35 33 32 32 32 33 33 33 32 32 31 30 29 29 28 28 27 27 26 26 26
85 90 94 94 89 88 88 86 88 90 78 67 69 75 78 70 44 27 29 35 36 34 34 36 35 35 36 36 35 34 33 32 31 32 34 38 41 43 47 48 47 46 44 43 44 42 41 43 46 48 48 49 54 53 47 47 50 51 53 53 53 52 50 49 50 52 54 56 58 60 60 59 58 57 51 43 40 38 35 35 35 34 34 33 32 32 31 30 29 28 28 27 26 26 25 25 25
84 86 91 93 93 96 92 84 86 85 76 70 70 74 72 55 37 30 29 32 35 31 31 34 34 36 38 37 37 36 34 33 34 35 37 39 43 46 50 51 49 47 45 43 44 43 43 45 47 50 52 52 56 57 52 50 52 54 56 56 56 55 54 52 53 54 56 58 61 64 65 64 63 62 57 49 43 41 39 38 37 36 35 34 32 32 31 30 29 28 27 27 26 25 25 25 25
81 80 87 91 90 96 93 85 89 87 80 74 69 71 67 49 35 30 30 32 33 31 30 33 35 36 38 38 38 38 37 36 36 36 37 39 41 44 48 52 52 50 48 46 46 46 46 46 48 51 53 54 56 60 59 56 56 57 58 58 59 59 58 57 57 58 60 62 65 67 68 68 66 66 62 54 47 44 42 40 39 37 35 34 34 32 31 30 29 29 28 27 26 26 25 25 25
85 82 88 90 86 90 92 87 86 89 89 79 70 67 57 42 30 25 32 35 31 33 35 36 38 36 37 39 40 41 41 41 41 40 40 41 42 44 45 48 51 52 52 51 50 49 49 49 52 54 55 56 58 62 63 62 59 59 60 61 61 62 62 62 62 63 64 66 68 69 69 69 68 68 65 57 50 45 43 40 39 37 36 35 34 33 32 31 30 29 28 28 27 26 25 25 25
85 83 86 86 84 88 95 92 86 91 96 80 68 64 52 42 34 24 31 35 31 35 39 39 41 41 42 44 45 46 46 46 46 45 44 44 45 46 47 48 51 52 53 53 53 51 51 53 56 59 61 61 63 65 66 65 63 62 62 63 64 65 65 66 66 67 68 69 70 71 70 70 70 68 64 58 51 45 42 40 38 37 36 35 34 33 32 31 30 29 28 27 26 26 25 25 25
82 84 83 82 85 88 93 97 93 95 96 77 64 63 53 45 39 30 33 37 32 36 42 42 44 46 48 48 48 50 51 51 50 49 49 48 47 49 51 52 52 53 54 54 53 53 53 56 59 62 65 65 67 69 69 68 66 65 65 65 66 67 68 69 70 70 71 72 72 72 72 72 70 67 62 57 51 45 41 39 38 37 36 35 34 32 31 30 28 27 26 25 24 23 23 23 23
79 83 83 83 90 92 93 98 95 93 95 81 64 60 51 42 38 34 34 36 34 35 42 45 45 46 50 49 49 53 54 55 54 53 52 52 51 50 51 54 54 54 55 54 54 54 55 59 62 63 66 68 71 72 72 70 69 68 68 68 69 70 71 72 73 73 74 74 74 74 73 72 70 66 60 56 51 45 40 39 37 36 35 34 32 31 29 27 26 24 23 21 21 20 20 20 20
80 83 87 88 91 94 94 96 94 93 97 89 73 63 48 34 33 34 33 34 35 34 38 44 44 46 48 47 49 54 56 57 57 57 56 56 56 54 52 54 56 56 57 55 55 56 57 59 63 64 65 69 73 75 75 73 71 70 71 71 73 74 74 75 76 77 77 76 76 75 74 71 68 62 57 54 51 44 39 37 36 35 34 32 31 29 27 25 23 21 20 19 18 17 17 17 17
81 83 87 89 88 91 93 91 88 92 97 93 86 74 47 28 32 35 32 33 35 35 37 40 43 46 46 46 50 53 56 58 59 60 60 60 60 59 57 58 59 59 59 58 58 59 58 60 64 66 66 70 74 77 77 75 73 73 74 75 76 76 77 78 79 79 79 79 78 76 72 67 63 58 54 53 49 41 37 35 34 33 31 30 29 27 25 23 21 20 18 17 17 16 16 16 15
77 78 77 81 84 88 95 92 82 86 92 85 85 80 47 26 34 37 31 31 35 38 39 38 42 46 46 48 52 55 57 60 61 63 63 62 61 61 62 63 64 63 61 61 62 63 63 62 66 69 70 73 77 78 79 78 76 76 77 78 79 80 80 80 81 81 82 81 77 72 66 61 57 53 52 51 46 38 34 32 32 31 30 28 27 25 23 21 20 19 18 17 16 16 16 15 15